カタログに戻る

DMSP 5D-2 F13 DEB

運用中SSO
NORAD 40609·DEBRIS·🇺🇸 United States

打ち上げ Mar 24, 1995 から Vandenberg Space Force Base

Loading…

次のパス (今後24時間)

TLE

最新Source: Space-Track

元期: Sep 12, 2026, 09:04 UTC

1 40609U 95015FG  26255.37809535  .00003130  00000-0  91055-3 0  9999
2 40609  98.6773 301.1585 0004950 112.8867 247.2846 14.44957924592430

AllMySatでDMSP 5D-2 F13 DEBをリアルタイム追跡

Download on the App Store